www.pogodaiklimat.ru

Погода и климат >> Архив погоды >> Россия >> Ханты-Мансийский АО >> Нефтеюганск


ПОГОДА в Нефтеюганске

АРХИВ ПОГОДЫ в Нефтеюганске

Время (UTC), дата Ветер
(напр.,м/с)
 
Видим.   Явления Облачность Т
(С)
Тd
(С)
f
(%)
Тe
(С)
Тes
(С)
Комфортность P
(гПа)
Po
(гПа)
Тmin
(С)
Tmax
(С)
R
(мм)
R24
(мм)
S
(см)
09 18.04 ЮЗ 3 50 км 9/9 600 м
[Sc]
+4.1 -4.5 53 +1 +2 тепло 1011.2 1006.2
12 18.04 Ю 4 50 км 10/0
[As op]
+2.4 -0.7 80 -2 -2 по сезону 1011.2 1006.2
15 18.04 Ю 2
{8}
50 км {ливн. осадки} 8/4 600 м
[Cb cap Ac trans]
+2.1 -1.0 80 -1 -1 по сезону 1009.5 1004.5 +4.5 0.0
18 18.04 ЮЗ 3 20 км {ливн. осадки} 8/0
[Ac trans]
+1.9 -0.6 83 -2 -2 тепло 1008.6 1003.7
21 18.04 З 4 20 км 10/0
[As op]
+1.5 -0.1 89 -4 -4 по сезону 1007.5 1002.5
00 19.04 З 6 50 км 10/5 600 м
[Cb cap As op]
+0.8 -0.7 90 -6 -6 по сезону 1008.1 1003.1
03 19.04 З 6
{10}
10 км слабый ливневой снег 10/8 600 м
[Cb cap As op]
+0.3 -0.9 92 -6 -6 по сезону 1009.7 1004.7 +0.3 0.2 34
06 19.04 З 8
{11}
50 км 7 баллов +1.4 -2.9 73 -5 -5 по сезону 1013.0 1008.0 -0.2
09 19.04 З 8
{14}
50 км 9 баллов +2.2 -4.1 63 -4 -4 по сезону 1015.7 1010.7
12 19.04 З 6
{14}
50 км 10 баллов +2.0 -4.9 60 -4 -4 по сезону 1017.0 1012.0
15 19.04 СЗ 3
{14}
50 км 10 баллов +0.3 -4.0 73 -4 -4 по сезону 1019.8 1014.7 +3.1 0.0
18 19.04 СЗ 4 4000 м слабый ливневой снег 10/6 600 м
[Cb cap As op]
-2.2 -4.1 87 -8 -8 по сезону 1020.1 1015.0
21 19.04 СЗ 2 20 км {ливн. осадки} 10/6 600 м
[Cb cap As op]
-3.9 -6.4 83 -8 -8 по сезону 1021.5 1016.3
00 20.04 З 2 50 км 10 баллов -5.5 -7.2 88 -10 -10 по сезону 1023.9 1018.7
03 20.04 СЗ 1
{8}
50 км 10/3 600 м
[Cb cap Ac trans Ci fib]
-3.7 -7.1 77 -6 -4 по сезону 1023.6 1018.5 -5.6 0.2 32
06 20.04 З 5
{10}
50 км 6/6 600 м
[Cu med, cong]
-1.4 -7.4 64 -7 -6 прохладно 1024.6 1019.4
09 20.04 З 5 50 км 4/4 600 м
[Cu med, cong]
+0.3 -7.0 58 -5 -3 по сезону 1024.5 1019.4
12 20.04 З 4 50 км 8/5 600 м
[Cb cap Ac trans]
+0.8 -7.0 56 -4 -3 по сезону 1024.8 1019.8
15 20.04 СВ 1
{10}
50 км 2 балла -1.9 -7.6 65 -4 -4 по сезону 1025.1 1020.0 +1.2
18 20.04 В 1 20 км ясно -5.1 -7.5 83 -7 -7 по сезону 1024.8 1019.6
21 20.04 ЮВ 1 20 км ясно -6.9 -8.1 91 -9 -9 по сезону 1024.8 1019.6
00 21.04 В 3 50 км 8/0
[Ci fib]
-5.5 -7.5 86 -11 -11 по сезону 1023.8 1018.6
03 21.04 В 5
{7}
50 км 9/0
[Ac trans]
-2.0 -5.4 78 -8 -8 по сезону 1021.6 1016.5 -7.1 28
06 21.04 В 6
{10}
50 км 10/5 600 м
[Cb cap As op]
-0.1 -5.4 67 -6 -6 по сезону 1019.1 1014.0
09 21.04 В 9
{15}
50 км в посл. час ливневой снег 10 баллов +0.7 -2.7 78 -7 -7 прохладно 1014.3 1009.3
12 21.04 ЮВ 9
{15}
50 км 10 баллов +3.9 -3.6 58 -2 -2 по сезону 1010.3 1005.3
15 21.04 ЮВ 7-10
{14}
50 км 10/0
[Ac und]
+3.9 -3.2 60 -2 -2 по сезону 1006.1 1001.2 +4.3 0.5
18 21.04 ЮВ 5
{11}
20 км 10/0
[As op]
+4.9 -1.3 64 +1 +1 тепло 1003.1 998.2
21 21.04 ЮВ 4
{10}
4000 м слабый ливневой дождь 10 баллов +4.9 -0.3 69 +1 +1 тепло 1003.6 998.7
00 22.04 З 5 10 км слабый ливневой дождь 10 баллов +2.1 +0.9 92 -4 -4 по сезону 1003.7 998.7
03 22.04 З 3
{11}
500 м ливневой снег 10/10 200 м
[Cb cap]
+0.1 -0.8 94 -5 -5 по сезону 1004.3 999.3 +0.1 8 27
06 22.04 Ю 2 50 км 10 баллов +1.6 +0.1 90 -2 -2 по сезону 1006.3 1001.3 0.0
09 22.04 Ю 3 50 км {ливн. осадки} 10/4 600 м
[Cb cap As op]
+1.9 -1.0 81 -2 -1 по сезону 1006.6 1001.6
12 22.04 З 5 н/о 7 баллов +3.4 -5.3 53 -1 -1 по сезону 1009.0 1004.0
15 22.04 З 4
{8}
50 км 7 баллов +1.6 -4.5 64 -3 -3 по сезону 1011.7 1006.7 +4.3 1
18 22.04 ЮЗ 3 20 км ясно +0.4 -5.7 64 -4 -4 по сезону 1012.7 1007.7
21 22.04 ЮВ 1 20 км ясно -2.6 -6.0 77 -5 -5 по сезону 1013.9 1008.8
00 23.04 Ю 3 50 км 3/0
[Ci fib]
-3.0 -6.2 79 -8 -8 по сезону 1015.4 1010.3
03 23.04 Ю 4
{6}
50 км 8/0
[Ci]
+2.4 -5.7 55 -2 +1 по сезону 1016.2 1011.2 -4.0 26
06 23.04 ЮВ 5 50 км 8/8 600 м
[Sc]
+6.2 -5.8 42 +3 +4 тепло 1015.8 1010.8
09 23.04 ЮВ 4 50 км 9/9 600 м
[Cb cap]
+6.8 -4.3 45 +4 +4 тепло 1015.0 1010.1
12 23.04 ЮВ 3 50 км 9/6 600 м
[Sc Ac trans]
+7.3 -4.5 43 +5 +6 тепло 1013.8 1008.8
15 23.04 ЮВ 5
{9}
50 км 10 баллов +5.0 -3.8 53 +1 +1 тепло 1014.3 1009.3 +8.4
18 23.04 ЮВ 4 20 км 9/0
[Ac und]
+3.6 -4.9 54 -0 -0 тепло 1012.9 1007.9
21 23.04 В 4 20 км 9/0
[Ac und]
+0.8 -4.9 66 -4 -4 по сезону 1011.3 1006.3
00 24.04 В 2 50 км 3/0
[Ac trans]
-1.7 -5.3 76 -5 -5 по сезону 1011.2 1006.1
03 24.04 ЮВ 3
{10}
50 км 9/0
[Ac trans Ci fib]
+2.6 -3.6 64 -1 +1 тепло 1010.0 1005.0 -1.8 23
06 24.04 ЮВ 2 50 км 9/0
[Ac As Ci]
+8.3 -3.9 42 +7 +12 тепло 1010.4 1005.5
09 24.04 ЮЗ 3 50 км 10/0
[Ac und]
+9.4 -3.7 39 +8 +10 тепло 1011.3 1006.4
12 24.04 З 5 50 км 9/9 600 м
[Sc]
+8.3 -1.3 51 +5 +5 тепло 1013.5 1008.6
15 24.04 Ю 2
{8}
50 км 7 баллов +6.2 -0.8 61 +4 +4 тепло 1017.0 1012.0 +9.6
18 24.04 В 3 20 км 3/0
[Ac trans]
+4.0 -1.7 66 +1 +1 тепло 1017.4 1012.4
21 24.04 Ю 2 20 км 3/0
[Ac trans]
+1.2 -2.1 79 -2 -2 тепло 1018.1 1013.0
00 25.04 Ю 3 50 км 8/0
[Ac trans]
+2.4 -1.7 74 -2 -1 тепло 1017.9 1012.9
03 25.04 Ю 3
{6}
50 км 10/0
[As op]
+5.2 -0.7 66 +2 +3 тепло 1018.2 1013.3 +0.1 20
06 25.04 ЮВ 6 50 км в посл. час дождь 10/0
[As op]
+7.3 +1.3 66 +3 +4 тепло 1015.1 1010.1

 

Местоположение метеостанции Нефтеюганск (Ханты-Мансийский АО, Россия): широта 61.07 долгота 72.62 высота над уровнем моря 40 м.

В архиве по умолчанию представлена погода в Нефтеюганске за последнюю неделю. Архивные данные за месяц целиком и за предыдущие месяцы, начиная с января 2011 года, Вы можете получить, выбрав интересующий диапазон дат из раскрывающегося списка и нажав кнопку "Ввод!".

Внимание! Время в таблицах - всемирное. Для получения местного времени необходимо прибавить поправку, которая в Нефтеюганске равна 5 ч.

Смотрите также архив погоды в соседних городах и на ближайших метеорологических станциях:

Погода в Сургуте (Ханты-Мансийский АО, Россия) (52 км)
Погода в Сытомино (Ханты-Мансийский АО, Россия) (75 км)
Погода в Угуте (Ханты-Мансийский АО, Россия) (99 км)
Погода в Салыме (Ханты-Мансийский АО, Россия) (127 км)
Погода в Когалыме (Ханты-Мансийский АО, Россия) (164 км)
Погода в Таурово (Ханты-Мансийский АО, Россия) (170 км)
Погода в Ханты-Мансийске (Ханты-Мансийский АО, Россия) (188 км)
Погода в Нижнесортымском (Ханты-Мансийский АО, Россия) (193 км)
Погода в Алтае (Ханты-Мансийский АО, Россия) (215 км)
Погода в Нижневартовске (Ханты-Мансийский АО, Россия) (215 км)

Пояснения к столбцам:

Ветер - указаны скорость ветра в м/с - средняя за 10 мин, порывы в срок и между сроками (в фигурных скобках) и направление, откуда дует ветер: С - северный, СВ - северо-восточный, В - восточный, ЮВ - юго-восточный, Ю - южный, ЮЗ - юго-западный, З - западный, СЗ - северо-западный.
Видимость - горизонтальная дальность видимости в метрах или километрах. При видимости от 1 до 10 км при отсутствии осадков обычно наблюдается дымка, при ухудшении видимости до 1 км и менее - туман. В сухую погоду видимость может ухудшаться дымом, пылью или мглою.
Явления - указаны атмосферные явления, наблюдавшиеся в срок или в последний час перед сроком; фигурными скобками обозначены явления, наблюдавшиеся между сроками (за 1-3 часа до срока); квадратными скобками обозначены град или гололедные отложения с указанием их диаметра в мм.
Облачность - указаны через наклонную черту общая и нижняя облачность в баллах и высота нижней границы облаков в метрах; квадратными скобками обозначены формы облаков: Ci - перистые, Cs - перисто-слоистые, Cc - перисто-кучевые, Ac - высококучевые, As - высокослоистые, Sc - слоисто-кучевые, Ns - слоисто-дождевые, Cu - кучевые, Cb - кучево-дождевые. Подробнее классификацию облаков см. в Атласе облаков (PDF).
T - Температура воздуха - температура, измеренная на высоте 2 м над землей.
Td - Температура точки росы - температура, при понижении до которой содержащийся в воздухе водяной пар достигнет насыщения.
f - Относительная влажность воздуха - влажноcть воздуха, измеренная на высоте 2 м над землей.
Te - Эффективная температура - температура, которую ощущает одетый по сезону человек в тени. Характеристика душности погоды. При расчете учитывается влияние влажности воздуха и скорости ветра на теплоощущения человека.
Tes - Эффективная температура на солнце - температура, которую ощущает человек, с поправкой на солнечный нагрев. Характеристика знойности погоды. Зависит от высоты солнца над горизонтом, облачности и скорости ветра. Ночью, в пасмурную погоду, а также при ветре 12 м/с и более поправка равна нулю.
P - Атмосферное давление - приведенное к уровню моря атмосферное давление.
Po - Атмосферное давление - измеренное на уровне метеостанции атмосферное давление.
Tmin - Минимальная температура - минимум температуры воздуха на высоте 2 м над землей.
Tmax - Максимальная температура - максимум температуры воздуха на высоте 2 м над землей.
R - Количество осадков - Количество выпавших осадков за период времени, мм. При наведении курсора мыши на число - период времени, за который выпало указанное количество осадков.
R24 - Количество осадков - Количество выпавших осадков за 24 часа, мм.
S - Снежный покров - Высота снежного покрова, см. При наведении курсора мыши на число - состояние снежного покрова и степень покрытия местности в баллах.